Lid_Strength_Index
8 11 12 10 11 9 9 10 11 12 12 12 12 12 12 10 11 10 9 7 5 4 3 2 2 1 1 1 1 1 1 0 0 0 1 1 1 0 -0 -1 -1 -1 -1 -1
10 12 8 8 9 10 10 11 12 10 11 11 11 12 11 11 10 10 9 8 7 5 3 3 2 2 2 1 1 1 1 0 0 0 0 0 0 -0 -0 -1 -1 -1 -1 -1
11 10 9 10 11 11 11 11 11 11 11 10 10 10 10 9 10 10 10 9 8 7 5 3 3 2 2 2 1 1 1 0 0 0 -0 0 -0 0 1 0 -0 -1 -1 -1
9 9 10 10 11 10 12 11 10 11 11 14 11 14 10 8 8 10 10 10 10 9 7 5 3 2 2 2 1 1 1 1 0 0 1 1 2 2 1 0 -0 -0 -1 -1
11 11 10 11 10 9 11 10 10 11 12 13 12 14 11 9 10 8 8 9 9 8 9 7 6 4 2 1 1 1 1 1 0 0 0 1 1 1 0 0 0 0 -1 -1
12 9 8 9 9 8 10 11 11 11 12 15 12 14 13 10 10 8 7 8 8 8 8 8 7 6 5 4 3 1 1 1 0 0 0 1 1 1 1 1 1 1 0 0
13 12 10 9 11 10 9 11 16 17 17 17 16 15 13 10 9 9 9 8 9 9 8 8 9 10 8 7 6 4 2 2 1 1 1 1 1 1 1 1 1 1 1 0
14 16 12 10 10 12 12 11 16 21 20 16 17 16 13 11 10 10 8 9 10 11 10 10 9 9 8 7 6 6 4 3 1 1 1 1 1 1 1 1 1 1 1 0
13 15 12 11 11 10 13 13 11 16 20 17 15 14 11 10 10 10 10 10 9 9 10 10 9 9 10 8 8 6 5 4 3 1 1 1 1 1 1 0 0 0 0 2
12 16 13 13 11 12 11 10 14 13 19 19 16 16 14 11 11 10 10 9 9 9 9 9 9 9 9 8 8 7 6 5 4 3 2 1 2 2 1 1 1 2 2 3
11 13 16 13 14 13 12 13 13 12 14 17 17 14 11 11 11 11 9 9 9 9 8 8 8 8 8 7 6 6 7 7 5 4 4 4 4 5 2 0 0 1 2 3
12 14 17 15 14 12 10 11 11 14 16 14 16 15 11 11 10 10 9 9 9 9 8 8 8 8 8 7 6 6 6 6 6 5 5 4 3 3 2 1 1 3 5 6
12 14 17 16 14 13 13 13 10 12 13 15 17 14 10 11 10 9 9 8 8 9 8 8 8 8 7 7 6 6 7 6 6 6 5 6 5 4 4 5 6 6 8 9
10 13 14 17 15 13 15 13 10 11 14 14 13 12 12 11 10 9 9 9 8 8 8 8 8 7 7 7 7 7 8 8 8 7 7 7 8 6 7 8 8 9 9 10
10 14 14 14 13 12 12 13 12 12 12 13 12 12 10 9 9 8 7 8 9 9 8 8 8 7 7 8 7 7 8 8 8 8 8 8 9 9 10 10 10 10 11 12
12 14 14 16 13 12 13 12 12 12 11 11 12 12 9 8 7 8 8 9 9 8 8 8 8 7 8 8 8 8 8 9 8 8 8 10 10 11 11 11 12 12 13 13
13 14 14 15 14 13 14 14 12 12 11 11 13 11 9 10 9 9 8 9 9 8 8 8 8 7 7 8 8 8 8 8 8 8 9 10 11 11 12 13 13 13 13 12
13 13 13 16 16 18 12 10 10 11 11 10 10 10 9 8 8 7 7 8 8 8 8 8 7 7 7 7 7 7 8 9 9 10 10 11 11 11 12 12 13 13 13 13
10 11 15 16 15 14 14 13 13 13 12 10 10 9 9 9 10 9 7 8 8 7 7 7 6 6 7 7 7 9 10 10 10 11 11 12 12 13 13 14 14 14 14 14
12 10 12 18 16 18 14 12 10 9 14 10 9 9 9 9 12 9 9 9 9 9 9 8 8 8 7 8 9 10 10 11 11 12 12 13 13 14 14 14 15 15 14 14
14 13 15 15 15 14 11 12 9 14 12 9 9 9 9 10 9 10 10 10 10 11 10 10 9 9 9 11 10 11 11 12 12 13 13 14 14 14 14 14 15 15 15 15
14 15 15 15 15 17 12 12 12 9 10 10 10 10 10 10 10 11 11 11 11 12 12 12 12 12 12 12 11 12 12 13 13 13 14 14 14 14 14 14 15 15 15 15
14 12 13 13 12 11 11 9 9 9 8 9 8 9 10 10 10 11 11 12 13 13 14 14 13 14 14 13 12 13 14 14 14 14 14 14 14 14 14 15 15 15 15 15
13 12 12 12 12 11 11 11 10 9 8 9 9 10 10 10 11 12 12 13 13 14 14 14 13 13 14 14 14 13 14 14 14 14 15 15 15 15 15 15 15 15 15 15
11 12 14 13 13 11 10 10 9 11 11 11 11 11 10 10 12 12 13 13 13 14 15 14 14 14 15 15 14 14 15 14 14 14 15 15 15 15 16 16 16 15 15 14
12 13 12 12 10 9 9 8 10 10 11 10 11 12 12 11 12 12 13 14 14 14 15 15 15 15 16 15 16 16 15 14 14 15 16 16 16 17 17 17 17 16 16 16